www.pogodaiklimat.ru

Погода и климат >> Архив погоды >> Россия >> Тамбовская область >> Моршанск


ПОГОДА в Моршанске

  • Прогноз погоды в Моршанске
  • Монитор погоды в Моршанске

АРХИВ ПОГОДЫ в Моршанске

Время (UTC), дата Ветер
(напр.,м/с)
 
Видим.   Явления Облачность Т
(С)
Тd
(С)
f
(%)
Тe
(С)
Тes
(С)
Комфортность P
(гПа)
Po
(гПа)
Тmin
(С)
Tmax
(С)
R
(мм)
R24
(мм)
S
(см)
18 11.09 штиль 0 10 км ясно +13.5 +10.3 81 +13 +13 1031.0 1013.8
21 11.09 штиль 0 4000 м дымка ясно +11.1 +9.5 90 +10 +10 1031.2 1013.8
00 12.09 штиль 0 4000 м дымка ясно +9.1 +8.5 96 +8 +8 1031.3 1013.8
03 12.09 Ю 1 4000 м дымка 9/9 600 м
[Sc]
+11.1 +9.0 87 +11 +11 1031.3 1013.9 +9.1
06 12.09 Ю 1 10 км 9/0
[Ac trans]
+18.6 +10.4 59 +20 +22 1030.6 1013.7
09 12.09 Ю 1 10 км 8/8 600 м
[Cu med, cong]
+25.6 +6.4 29 +25 +27 комфорт 1029.3 1012.7
12 12.09 ЮВ 2 10 км 6/6 600 м
[Cu med, cong]
+26.5 +7.1 29 +26 +28 жарко 1027.7 1011.3
15 12.09 ЮВ 1 10 км 8/8 600 м
[Cu med, cong]
+21.4 +12.4 56 +24 +24 комфорт 1026.8 1010.2 +27.4
18 12.09 штиль 0 10 км 1/0
[Ac trans]
+15.6 +9.0 65 +15 +15 1027.2 1010.2
21 12.09 Ю 1 10 км 5/0
[Ac trans]
+16.2 +8.6 61 +17 +17 1026.6 1009.6
00 13.09 Ю 1 10 км 9/0
[Ac As]
+14.8 +8.9 68 +15 +15 1026.0 1008.9
03 13.09 Ю 1 10 км 9/0
[Ac As]
+14.8 +8.2 65 +15 +15 1025.4 1008.3 +14.4
06 13.09 Ю 1 10 км 9/0
[Ac und]
+16.9 +8.2 56 +18 +20 1024.9 1008.0 +14.2
09 13.09 ЮЗ 2 10 км 9/6 600 м
[Cb cap Ac As]
+25.6 +7.0 31 +26 +27 жарко 1023.0 1006.5
12 13.09 ЮЗ 2 10 км 8/5 600 м
[Sc diur, vesp Ac As]
+26.6 +4.5 24 +26 +27 жарко 1021.1 1004.8
15 13.09 Ю 2 10 км 4/0
[Ac trans]
+23.5 +5.8 32 +24 +24 комфорт 1019.3 1002.8 +26.7
18 13.09 Ю 1 10 км ясно +17.6 +6.5 48 +19 +19 1019.1 1002.2
21 13.09 Ю 1 10 км 3/0
[Ac und]
+16.6 +4.8 46 +18 +18 1017.4 1000.6
00 14.09 Ю 1 10 км 8/0
[Ac und]
+15.5 +3.4 44 +16 +16 1015.7 998.8
03 14.09 Ю 2 10 км 9/9 600 м
[Sc]
+15.5 +4.1 47 +16 +16 1014.2 997.3 +15.2
06 14.09 ЮЗ 2 10 км 9/6 600 м
[Sc Ac und]
+19.3 +6.5 43 +20 +21 1013.7 997.0
09 14.09 З 3 10 км 9/9 600 м
[Sc]
+17.8 +11.8 68 +18 +19 1014.0 997.3
12 14.09 ЮЗ 1 4000 м слаб. ливневой дождь 10/10 600 м
[Cb cap]
+15.0 +13.2 89 +15 +15 1014.7 997.8
15 14.09 З 2 10 км в посл. час ливневой дождь 8/3 600 м
[Cb cap Ac cuf]
+15.2 +12.1 82 +15 +15 1014.7 997.8 +21.1 1
18 14.09 З 2 10 км {ливн. осадки} 9/0
[Ac und]
+12.9 +6.2 64 +12 +12 1015.8 998.8
21 14.09 З 2 10 км 3/0
[Ac und]
+10.3 +5.0 70 +9 +9 1016.4 999.3
00 15.09 З 2 10 км ясно +7.8 +4.3 79 +6 +6 1017.0 999.6
03 15.09 З 3 10 км 8/0
[Ac As]
+6.6 +3.8 82 +4 +4 1017.0 999.6 +6.3
06 15.09 З 2 10 км 9/5 600 м
[Sc Ac As]
+9.8 +5.0 72 +8 +9 1017.1 999.9
09 15.09 З 3 10 км 8/8 600 м
[Cb calv]
+14.0 +5.8 58 +13 +15 1016.4 999.4
12 15.09 СЗ 3 10 км {ливн. осадки} 6/6 600 м
[Cb cap]
+14.7 +3.8 48 +14 +16 1015.3 998.4
15 15.09 З 1
{11}
10 км 5/5 600 м
[Sc diur, vesp]
+13.2 +3.6 52 +14 +14 1014.4 997.4 +15.5 0.3
18 15.09 Ю 1 10 км 9/9 600 м
[Sc]
+10.8 +1.3 52 +11 +11 1013.6 996.5
21 15.09 Ю 2 10 км 9/9 600 м
[Sc]
+11.0 +3.0 58 +10 +10 1011.5 994.5
00 16.09 Ю 1 10 км 9/9 600 м
[Sc]
+10.0 +5.6 74 +10 +10 1009.8 992.8
03 16.09 Ю 2 4000 м слаб. ливневой дождь 10/10 600 м
[Cb cap]
+8.4 +6.4 87 +6 +6 1006.4 990.3 +8.4 1
06 16.09 Ю 1 4000 м слаб. ливневой дождь 10/10 600 м
[Cb cap]
+9.6 +8.5 93 +9 +9 1005.3 988.2
09 16.09 ЮЗ 3 10 км {ливн. осадки} 9/8 600 м
[Cb cap Ac und]
+14.4 +5.8 56 +14 +15 1002.4 985.8
12 16.09 ЮЗ 5-10
{11}
10 км {ливн. осадки} 9/9 600 м
[Cb cap]
+15.3 +5.5 52 +14 +14 1001.8 985.2
15 16.09 ЮЗ 2
{15}
10 км 4/0
[Ac cuf]
+14.2 +8.2 67 +14 +14 1001.6 985.0 +16.1 2
18 16.09 ЮЗ 1 10 км 5/0
[Ci fib]
+11.6 +6.2 69 +12 +12 1002.9 986.0
21 16.09 ЮЗ 2 10 км 3/0
[Ci fib]
+11.3 +5.8 69 +10 +10 1002.6 985.7
00 17.09 ЮЗ 1 10 км 3/0
[Ci fib]
+9.7 +6.1 78 +9 +9 1001.7 984.7
03 17.09 ЮЗ 1 10 км 8/0
[Ac trans]
+8.7 +5.3 79 +8 +8 1001.5 984.5 +8.5
06 17.09 ЮЗ 3 10 км 1/0
[Cc]
+13.4 +5.3 58 +12 +15 1001.2 984.4
09 17.09 З 5
{12}
10 км 9/9 600 м
[Cb calv]
+15.4 +4.8 49 +14 +15 1000.3 983.7
12 17.09 ЮЗ 2
{12}
10 км в посл. час ливневой дождь 8/3 600 м
[Cb calv Ac cuf Ci fib]
+15.7 +3.8 45 +16 +18 1000.2 983.6
15 17.09 З 4
{10}
10 км {ливн. осадки} 1/1 600 м
[Cb calv]
+15.2 +0.9 38 +14 +14 1000.0 983.4 +16.9 0.3
18 17.09 З 2 10 км {ливн. осадки} ясно +9.9 +1.3 55 +9 +9 1001.8 984.7
21 17.09 ЮЗ 2 10 км ясно +7.7 +1.9 67 +6 +6 1002.2 985.1
00 18.09 ЮЗ 1 10 км 8/0
[Ci]
+6.2 +2.0 74 +5 +5 1002.3 985.2
03 18.09 Ю 1 10 км 3/0
[Ci sp]
+5.4 +1.9 78 +4 +4 1002.2 985.0 +5.4
06 18.09 Ю 2 10 км 8/0
[Ci]
+10.2 +3.6 64 +9 +12 1001.9 985.0 +5.3
09 18.09 Ю 3 10 км {ливн. осадки} 8/5 600 м
[Cb cap Ac As Ci sp]
+14.2 +2.9 46 +13 +16 1000.8 984.2
12 18.09 Ю 2 4000 м слаб. ливневой дождь 10/10 600 м
[Cb cap]
+11.8 +6.1 68 +11 +11 999.4 982.5
15 18.09 СВ 1 4000 м в посл. час ливневой дождь 9/8 600 м
[Cb cap Ac und]
+9.4 +8.6 95 +9 +9 997.1 980.2 +14.6 1

 

Местоположение метеостанции Моршанск (Тамбовская область, Россия): широта 53.45 долгота 41.80 высота над уровнем моря 142 м.

В архиве по умолчанию представлена погода в Моршанске за последнюю неделю. Архивные данные за месяц целиком и за предыдущие месяцы, начиная с января 2011 года, Вы можете получить, выбрав интересующий диапазон дат из раскрывающегося списка и нажав кнопку "Ввод!".


*Определитесь, кто Вы:
робот инопланетянин человек

Внимание! Время в таблицах - всемирное. Для получения местного времени необходимо прибавить поправку, которая равна 3 ч.

Смотрите также архив погоды в соседних городах и на ближайших метеорологических станциях:

Погода в Земетчино (Пензенская область, Россия) (55 км)
Погода в Сараях (Рязанская область, Россия) (61 км)
Погода в Тамбове (Тамбовская область, Россия) (79 км)
Погода в Сасово (Рязанская область, Россия) (101 км)
Погода в Пачелме (Пензенская область, Россия) (102 км)
Погода в Александро-Невском (Рязанская область, Россия) (105 км)
Погода в Кирсанове (Тамбовская область, Россия) (106 км)
Погода в Мичуринске (Тамбовская область, Россия) (108 км)
Погода в Шилово (Рязанская область, Россия) (112 км)
Погода в Ряжске (Рязанская область, Россия) (115 км)

Пояснения к столбцам:

Ветер - указаны скорость ветра в м/с - средняя за 10 мин, порывы в срок и между сроками (в фигурных скобках) и направление, откуда дует ветер: С - северный, СВ - северо-восточный, В - восточный, ЮВ - юго-восточный, Ю - южный, ЮЗ - юго-западный, З - западный, СЗ - северо-западный.
Видимость - горизонтальная дальность видимости в метрах или километрах. При видимости от 1 до 10 км при отсутствии осадков обычно наблюдается дымка, при ухудшении видимости до 1 км и менее - туман. В сухую погоду видимость может ухудшаться дымом, пылью или мглою.
Явления - указаны атмосферные явления, наблюдавшиеся в срок или в последний час перед сроком; фигурными скобками обозначены явления, наблюдавшиеся между сроками (за 1-3 часа до срока); квадратными скобками обозначены град или гололедные отложения с указанием их диаметра в мм.
Облачность - указаны через наклонную черту общая и нижняя облачность в баллах и высота нижней границы облаков в метрах; квадратными скобками обозначены формы облаков: Ci - перистые, Cs - перисто-слоистые, Cc - перисто-кучевые, Ac - высококучевые, As - высокослоистые, Sc - слоисто-кучевые, Ns - слоисто-дождевые, Cu - кучевые, Cb - кучево-дождевые. Подробнее классификацию облаков см. в Атласе облаков (PDF).
T - Температура воздуха - температура, измеренная на высоте 2 м над землей.
Td - Температура точки росы - температура, при понижении до которой содержащийся в воздухе водяной пар достигнет насыщения.
f - Относительная влажность воздуха - влажноcть воздуха, измеренная на высоте 2 м над землей.
Te - Эффективная температура - температура, которую ощущает одетый по сезону человек в тени. Характеристика душности погоды. При расчете учитывается влияние влажности воздуха и скорости ветра на теплоощущения человека.
Tes - Эффективная температура на солнце - температура, которую ощущает человек, с поправкой на солнечный нагрев. Характеристика знойности погоды. Зависит от высоты солнца над горизонтом, облачности и скорости ветра. Ночью, в пасмурную погоду, а также при ветре 12 м/с и более поправка равна нулю.
P - Атмосферное давление - приведенное к уровню моря атмосферное давление.
Po - Атмосферное давление - измеренное на уровне метеостанции атмосферное давление.
Tmin - Минимальная температура - минимум температуры воздуха на высоте 2 м над землей.
Tmax - Максимальная температура - максимум температуры воздуха на высоте 2 м над землей.
R - Количество осадков - Количество выпавших осадков за период времени, мм. При наведении курсора мыши на число - период времени, за который выпало указанное количество осадков.
R24 - Количество осадков - Количество выпавших осадков за 24 часа, мм.
S - Снежный покров - Высота снежного покрова, см. При наведении курсора мыши на число - состояние снежного покрова и степень покрытия местности в баллах.